Regional Weather Roundup
Issued by NWS

Home | Current Version | Previous Version | Text Only | Print | Product List | Glossary Off
Versions: 1 2 3 4 5 6 7 8 9 10 11 12 13 14 15 16 17 18 19 20 21 22 23 24 25 26 27 28 29 30 31 32 33 34 35 36 37 38 39 40 41 42 43 44 45 46 47 48 49 50

000
ASUS44 KMEG 040310
RWRTN
TENNESSEE HOURLY STATE WEATHER ROUNDUP
NATIONAL WEATHER SERVICE MEMPHIS TN
900 PM CST TUE MAR 03 2015

TNZ002-004-019-021-049-052-054-088>092-040400-
WEST TENNESSEE

CITY           SKY/WX    TMP DP  RH WIND       PRES   REMARKS
MEMPHIS INTL   FOG       62  60  93 S9        29.90R VSB 1/4
NWS MEMPHIS      N/A     61 N/A N/A MISG        N/A
JACKSON        CLOUDY    62  60  93 S12       29.89F
DYERSBURG      CLOUDY    55  43  62 CALM      29.88F
UNION CITY     CLOUDY    57  57 100 S6        29.85F VSB 1
PARIS          CLOUDY    57  55  94 SW13      29.88S
LEXINGTON      CLOUDY    61  61 100 SW9       29.90F
SAVANNAH       CLOUDY    63  63 100 S7        29.92F
$$

TNZ008-025-027-028-033-062-065-066-040400-
NORTH MIDDLE TENNESSEE

CITY           SKY/WX    TMP DP  RH WIND       PRES   REMARKS
NASHVILLE      CLOUDY    60  59  96 S9        29.91S
CLARKSVILLE    CLOUDY    62  60  93 SW9       29.87S
SMYRNA         CLOUDY    60  60 100 S8        29.93F
COOKEVILLE     CLOUDY    61  57  88 S10       29.94S
CROSSVILLE     CLOUDY    57  55  93 VRB7G16   29.98F
$$

TNZ061-075-076-078-094-096-097-040400-
SOUTH MIDDLE TENNESSEE

CITY           SKY/WX    TMP DP  RH WIND       PRES   REMARKS
FAYETTEVILLE   CLOUDY    57  57 100 S9          N/A
TULLAHOMA      MOCLDY    57  57 100 S7        29.97F
WINCHESTER     CLOUDY    59  57  94 SE3       29.99S
MCMINNVILLE    CLOUDY    63  63 100 SW8       29.96R
COLUMBIA       CLOUDY   N/A N/A N/A S10       29.92S
SHELBYVILLE    CLOUDY    63  63 100 S14       29.95S
$$

TNZ017-018-042-046-047-040400-
NORTHEAST TENNESSEE

CITY           SKY/WX    TMP DP  RH WIND       PRES   REMARKS
TRI CITIES     FOG       46  45  96 CALM      30.02F VSB 3/4
ELIZABETHTON   RAIN      46  46 100 CALM      30.02F FOG
$$

TNZ012-013-036-069-073-074-040400-
CENTRAL EAST TENNESSEE

CITY           SKY/WX    TMP DP  RH WIND       PRES   REMARKS
KNOXVILLE      LGT RAIN  49  48  97 CALM      29.99F FOG
OAK RIDGE      CLOUDY    52  51  97 CALM      30.01F FOG
GATLINBURG     CLOUDY    48  46  93 CALM      29.99F
MORRISTOWN     CLOUDY    46  46 100 CALM      30.00F
$$

TNZ083-085-099-040400-
SOUTHEAST TENNESSEE

CITY           SKY/WX    TMP DP  RH WIND       PRES   REMARKS
CHATTANOOGA    CLOUDY    53  53 100 CALM      30.04R FOG
$$

SKY/WX REPORTED AS FAIR MEANS FEW OR NO CLOUDS BELOW
12 THOUSAND FEET.



USA.gov is the U.S. government's official web portal to all federal, state and local government web resources and services.